This is the latest recevied weather packets stored in our database for station/object KE0QIB. If no packets are shown the sender has not sent any weather packets the latest 10 day(s).
| Time | Temp. | Humidity | Pressure | Rain* | Wind** | Luminosity | Snow |
|---|---|---|---|---|---|---|---|
| 1777588027 | 11.67° C | 35% | 1004.9 hPa | 0 mm | - | - | - |
| 1777587727 | 11.67° C | 34% | 1005.1 hPa | 0 mm | - | - | - |
| 1777587427 | 11.67° C | 33% | 1005.1 hPa | 0 mm | - | - | - |
| 1777587127 | 11.67° C | 33% | 1005.1 hPa | 0 mm | - | - | - |
| 1777586827 | 11.67° C | 34% | 1005.2 hPa | 0 mm | - | - | - |
| 1777586527 | 12.22° C | 32% | 1005.2 hPa | 0 mm | - | - | - |
| 1777586227 | 12.22° C | 33% | 1005.2 hPa | 0 mm | - | - | - |
| 1777585927 | 11.67° C | 36% | 1005.6 hPa | 0 mm | - | - | - |
| 1777585627 | 11.67° C | 34% | 1005.6 hPa | 0 mm | - | - | - |
| 1777585327 | 11.67° C | 34% | 1005.6 hPa | 0 mm | - | - | - |
| 1777585027 | 11.67° C | 33% | 1005.9 hPa | 0 mm | - | - | - |
| 1777584727 | 11.11° C | 36% | 1005.9 hPa | 0 mm | - | - | - |
| 1777584427 | 11.11° C | 35% | 1005.9 hPa | 0 mm | - | - | - |
| 1777584127 | 11.11° C | 34% | 1005.6 hPa | 0 mm | - | - | - |
| 1777583827 | 11.11° C | 33% | 1005.6 hPa | 0 mm | - | - | - |
| 1777583527 | 11.11° C | 35% | 1005.6 hPa | 0 mm | - | - | - |
| 1777583227 | 11.11° C | 33% | 1005.8 hPa | 0 mm | - | - | - |
| 1777582927 | 11.11° C | 34% | 1005.8 hPa | 0 mm | - | - | - |
| 1777582627 | 11.11° C | 35% | 1005.8 hPa | 0 mm | - | - | - |
| 1777582327 | 11.11° C | 33% | 1005.8 hPa | 0 mm | - | - | - |
| 1777582027 | 11.11° C | 33% | 1005.8 hPa | 0 mm | - | - | - |
| 1777581727 | 11.67° C | 33% | 1005.8 hPa | 0 mm | - | - | - |
| 1777581427 | 11.11° C | 34% | 1005.8 hPa | 0 mm | - | - | - |
| 1777581127 | 11.11° C | 34% | 1005.8 hPa | 0 mm | - | - | - |
| 1777580827 | 11.11° C | 36% | 1005.8 hPa | 0 mm | - | - | - |
* Rain latest hour (hover to see other rain measurements)
** Current wind speed in m/s (hover to see current wind gust speed)